Weather History for De Queen, AR

Change the Weather History Date:

Monday, April 1, 2013

  Actual Average Record
Temperature  
Mean Temperature 59 °F 57 °F  
Max Temperature 78 °F 70 °F 89 °F (1974)
Min Temperature 40 °F 44 °F 27 °F (1987)
Degree Days  
Heating Degree Days 6 9  
Month to date heating degree days 6 9  
Since 1 July heating degree days 2787 2877  
Cooling Degree Days 0 1  
Month to date cooling degree days 0 1  
Year to date cooling degree days 4 12  
Growing Degree Days 8 (Base 50)    
Moisture  
Dew Point 44 °F    
Average Humidity 64    
Maximum Humidity 100    
Minimum Humidity 28    
Precipitation  
Precipitation 0.00 in 0.14 in 0.75 in (1955)
Month to date precipitation 0.00 0.14  
Year to date precipitation 5.50 11.78  
Snow  
Snow 0.00 in - - ()
Month to date snowfall 0.0  
Since 1 July snowfall 4.5  
Snow Depth 0.00 in    
Sea Level Pressure  
Sea Level Pressure 30.01 in    
Wind  
Wind Speed 2 mph (NE)    
Max Wind Speed 10 mph    
Max Gust Speed 15 mph    
Visibility 4 miles    
Events Fog    
T = Trace of Precipitation, MM = Missing Value Source: NWS Daily Summary

Daily Weather History Graph

Daily Weather History Graph

Search for Another Location

Airport:

Trip Planner

Search our weather history database for the weather conditions in past years. The results will help you decide how hot, cold, wet, or windy it might be!

Date:

Astronomy

Apr. 01, 2013 Rise Set
Actual Time 7:04 AM CDT 7:38 PM CDT
Civil Twilight 6:39 AM CDT 8:03 PM CDT
Nautical Twilight 6:09 AM CDT 8:33 PM CDT
Astronomical Twilight 5:39 AM CDT 9:03 PM CDT
Moon 12:35 AM CDT 11:03 AM CDT
Length of Visible Light 13h 24m
Length of Day
12h 34m
Waning Gibbous, 67% of the Moon is Illuminated
Apr 1
Waning Gibbous
Apr 2
Last Quarter
Apr 10
New
Apr 18
First Quarter
Apr 25
Full

Hourly Weather History & Observations

Time (CDT) Temp. Windchill Dew Point Humidity Pressure Visibility Wind Dir Wind Speed Gust Speed Precip Events Conditions
12:53 AM 48.9 °F - 48.0 °F 97% 29.96 in 7.0 mi Calm Calm - N/A   Clear
1:23 AM 48.0 °F - 46.9 °F 96% 29.98 in 1.0 mi North 3.5 mph - N/A   Mist
1:33 AM 46.9 °F - 46.0 °F 97% 29.98 in 2.0 mi Calm Calm - N/A   Clear
1:40 AM 48.0 °F - 46.9 °F 96% 29.98 in 8.0 mi Calm Calm - N/A   Clear
2:39 AM 46.0 °F - 45.0 °F 96% 29.99 in 0.8 mi Calm Calm - N/A   Clear
2:47 AM 44.6 °F - 44.6 °F 100% 29.99 in 0.2 mi Calm Calm - N/A Fog Fog
2:53 AM 45.0 °F - 44.1 °F 97% 29.99 in 0.2 mi Calm Calm - N/A Fog Fog
3:19 AM 46.0 °F - 44.1 °F 93% 29.99 in 0.8 mi Calm Calm - N/A   Mist
3:42 AM 45.0 °F - 44.1 °F 97% 30.00 in 2.0 mi Calm Calm - N/A   Clear
3:50 AM 44.6 °F - 44.6 °F 100% 30.00 in 7.0 mi Calm Calm - N/A   Clear
3:53 AM 45.0 °F - 43.0 °F 93% 29.99 in 9.0 mi Calm Calm - N/A   Clear
4:04 AM 43.0 °F - 42.1 °F 97% 30.00 in 0.8 mi Calm Calm - N/A   Clear
4:32 AM 43.0 °F 41.3 °F 43.0 °F 100% 30.00 in 1.2 mi East 3.5 mph - N/A   Scattered Clouds
4:34 AM 43.0 °F - 42.1 °F 97% 30.00 in 3.0 mi Calm Calm - N/A   Scattered Clouds
4:37 AM 43.0 °F - 42.1 °F 97% 30.00 in 1.8 mi Calm Calm - N/A   Scattered Clouds
4:41 AM 42.1 °F 40.2 °F 42.1 °F 100% 30.00 in 0.8 mi ENE 3.5 mph - N/A   Mist
4:53 AM 42.1 °F - 42.1 °F 100% 29.99 in 0.5 mi Calm Calm - N/A Fog Fog
4:58 AM 43.0 °F 41.3 °F 42.1 °F 97% 30.00 in 1.2 mi East 3.5 mph - N/A   Partly Cloudy
5:01 AM 42.1 °F 40.2 °F 42.1 °F 100% 30.00 in 3.0 mi East 3.5 mph - N/A   Partly Cloudy
5:24 AM 42.1 °F 40.2 °F 41.0 °F 96% 30.00 in 1.8 mi NE 3.5 mph - N/A   Clear
5:34 AM 41.0 °F 38.0 °F 41.0 °F 100% 30.00 in 3.0 mi SE 4.6 mph - N/A   Clear
5:53 AM 41.0 °F 39.0 °F 39.9 °F 96% 30.00 in 1.0 mi North 3.5 mph - N/A   Clear
5:58 AM 41.0 °F - 39.9 °F 96% 30.01 in 0.2 mi Calm Calm - N/A Fog Fog
6:18 AM 41.0 °F - 39.0 °F 93% 30.02 in 0.5 mi Calm Calm - N/A Fog Fog
6:25 AM 42.1 °F - 41.0 °F 96% 30.02 in 1.0 mi Calm Calm - N/A   Clear
6:30 AM 42.1 °F - 39.9 °F 92% 30.02 in 4.0 mi Calm Calm - N/A   Clear
6:53 AM 39.9 °F - 39.0 °F 97% 30.03 in 2.5 mi Calm Calm - N/A   Clear
7:01 AM 41.0 °F - 39.9 °F 96% 30.04 in 1.8 mi Calm Calm - N/A   Clear
7:08 AM 39.9 °F - 39.9 °F 100% 30.04 in 0.2 mi Calm Calm - N/A Fog Fog
7:24 AM 39.9 °F - 39.0 °F 97% 30.04 in 1.0 mi Calm Calm - N/A   Clear
7:33 AM 41.0 °F - 39.9 °F 96% 30.05 in 1.0 mi Calm Calm - N/A   Mist
7:40 AM 41.0 °F - 41.0 °F 100% 30.05 in 0.8 mi Calm Calm - N/A   Mist
7:44 AM 42.1 °F - 41.0 °F 96% 30.05 in 1.5 mi Calm Calm - N/A   Partly Cloudy
7:53 AM 43.0 °F - 42.1 °F 97% 30.05 in 2.5 mi Calm Calm - N/A   Partly Cloudy
8:02 AM 44.1 °F - 43.0 °F 96% 30.06 in 6.0 mi Calm Calm - N/A   Clear
8:53 AM 50.0 °F - 48.0 °F 93% 30.06 in 10.0 mi Calm Calm - N/A   Clear
9:53 AM 61.0 °F - 51.1 °F 70% 30.07 in 10.0 mi Calm Calm - N/A   Clear
10:53 AM 66.9 °F - 55.0 °F 66% 30.08 in 10.0 mi West 3.5 mph - N/A   Clear
11:53 AM 72.0 °F - 45.0 °F 38% 30.06 in 10.0 mi North 3.5 mph - N/A   Clear
1:53 PM 73.0 °F - 45.0 °F 37% 30.04 in 10.0 mi SW 4.6 mph - N/A   Clear
2:53 PM 75.0 °F - 46.0 °F 36% 30.02 in 10.0 mi NW 6.9 mph - N/A   Clear
3:53 PM 75.9 °F - 41.0 °F 29% 30.00 in 10.0 mi Variable 4.6 mph - N/A   Clear
4:53 PM 75.9 °F - 43.0 °F 31% 29.99 in 10.0 mi WNW 6.9 mph - N/A   Clear
5:53 PM 78.1 °F - 42.1 °F 28% 29.98 in 10.0 mi Calm Calm - N/A   Clear
6:53 PM 75.0 °F - 43.0 °F 32% 29.97 in 10.0 mi Calm Calm - N/A   Clear
7:53 PM 66.0 °F - 48.9 °F 54% 29.97 in 8.0 mi Calm Calm - N/A   Clear
8:53 PM 57.9 °F - 52.0 °F 81% 29.98 in 10.0 mi NE 3.5 mph - N/A   Clear
9:53 PM 55.0 °F - 51.1 °F 86% 30.00 in 10.0 mi Calm Calm - N/A   Clear
10:53 PM 54.0 °F - 51.1 °F 90% 30.02 in 10.0 mi Calm Calm - N/A   Clear
11:53 PM 53.1 °F - 50.0 °F 89% 30.04 in 10.0 mi Calm Calm - N/A   Clear